Regional Weather Roundup
Issued by NWS

Home | Current Version | Previous Version | Graphics & Text | Print | Product List | Glossary On
Versions: 1 2 3 4 5 6 7 8 9 10 11 12 13 14 15 16 17 18 19 20 21 22 23 24 25 26 27 28 29 30 31 32 33 34 35 36 37 38 39 40 41 42 43 44 45 46 47 48 49 50
000
ASUS45 KPSR 060710
RWRAZ

ARIZONA HOURLY REGIONAL WEATHER ROUNDUP
NATIONAL WEATHER SERVICE PHOENIX AZ
1200 AM MST TUE DEC 06 2016

NOTE: FAIR INDICATES FEW OR NO CLOUDS BELOW 12,000 FEET WITH NO
SIGNIFICANT WEATHER AND/OR OBSTRUCTIONS TO VISIBILITY.

AZZ001>003-036-060800-
NORTHWEST ARIZONA

CITY           SKY/WX    TMP DP  RH WIND       PRES   REMARKS
BULLHEAD CITY  PTCLDY    52  23  32 CALM      29.90S
KINGMAN        MOCLDY    44  12  27 S6        29.93S
$$

AZZ004>008-015-016-018-060800-
NORTH CENTRAL ARIZONA

CITY           SKY/WX    TMP DP  RH WIND       PRES   REMARKS
GRAND CANYON   CLOUDY    29  23  78 CALM      29.96S
PRESCOTT       CLOUDY    39  20  46 CALM      29.97R
FLAGSTAFF      CLOUDY    30  20  66 N7        29.99R WCI  23
PAYSON         CLOUDY    41  19  42 E3        30.00S
PAGE           MOCLDY    42  10  27 CALM      29.86F
$$

AZZ009>014-017-060800-
NORTHEAST ARIZONA

CITY           SKY/WX    TMP DP  RH WIND       PRES   REMARKS
WINSLOW        CLOUDY    44  18  35 VRB5      29.93S
SAINT JOHNS    CLOUDY    38  18  44 CALM      29.94F
WINDOW ROCK    CLOUDY    38  13  35 N7        29.94S WCI  33
SHOW LOW       CLOUDY    34  14  44 S14       29.98F WCI  24
$$

AZZ023-060800-
GREATER PHOENIX AREA

CITY           SKY/WX    TMP DP  RH WIND       PRES   REMARKS
PHOENIX        MOCLDY    51  30  44 E7        29.91S
BUCKEYE          N/A     41  27  56 NE6       29.93S
LUKE AFB       PTCLDY    46  30  53 N6        29.91R
DEER VALLEY    PTCLDY    50  23  34 NE9       29.92R
SCOTTSDALE     PTCLDY    45  30  55 CALM      29.93S
$$

AZZ027-028-060800-
SOUTHWEST MARICOPA COUNTY AND PINAL COUNTY

CITY           SKY/WX    TMP DP  RH WIND       PRES   REMARKS
CASA GRANDE    NOT AVBL
GILA BEND      FAIR      51  21  30 S9        29.91S
$$

AZZ503-504-507>509-060800-
SOUTHEAST ARIZONA

CITY           SKY/WX    TMP DP  RH WIND       PRES   REMARKS
TUCSON         CLEAR     49  21  33 SE5       29.99R
DAVIS-MONTHAN  PTCLDY    46  21  37 E5        29.98R
NOGALES        CLEAR     47  31  53 S6        30.01S
SIERRA VISTA   CLEAR     43  28  55 NE5       30.01S
DOUGLAS        CLEAR     40  31  70 E5        30.01S
SAFFORD        CLEAR     39  17  41 SE6       29.95R WCI  35
$$

AZZ020-021-025-026-031-060800-
SOUTHWEST ARIZONA

CITY           SKY/WX    TMP DP  RH WIND       PRES   REMARKS
YUMA           PTCLDY    54  42  64 SE5       29.88F
$$

CAZ031-033-041-043-047-048-061-060800-
SOUTHERN CALIFORNIA

CITY           SKY/WX    TMP DP  RH WIND       PRES   REMARKS
DOWNTOWN L.A.  CLOUDY    57  53  86 E5        29.97R
L.A. AIRPORT   CLOUDY    58  54  86 E9        29.97S
SAN DIEGO      MOCLDY    60  50  69 S7        30.00R
BURBANK        CLOUDY    52  47  83 N3        29.97R
ONTARIO        CLOUDY    53  51  93 W6        29.97S
RIVERSIDE      CLOUDY    52  49  89 CALM      29.97S
PALM SPRINGS   CLEAR     51  34  52 S5        29.91S
EL CENTRO NAS  CLEAR     46  30  53 W5        29.90F
IMPERIAL       CLEAR     50  36  58 CALM      29.88F
BLYTHE         PTCLDY    46  18  32 N8        29.90S
NEEDLES        PTCLDY    51  16  24 NW8       29.89S
$$

NVZ020-UTZ003-060800-
SOUTHERN NEVADA-UTAH

CITY           SKY/WX    TMP DP  RH WIND       PRES   REMARKS
LAS VEGAS      MOCLDY    48  19  31 W3        29.89S
SALT LAKE CITY MOCLDY    26  10  50 CALM      29.99S
$$

NMZ009-TXZ055-060800-
NEW MEXICO-WEST TEXAS

CITY           SKY/WX    TMP DP  RH WIND       PRES   REMARKS
ALBUQUERQUE    CLOUDY    36  16  44 S6        29.91S WCI  31
EL PASO        CLOUDY    53  24  32 SW12      29.93S
$$


........................KEY........................
SKY/WX - SKY CONDITION/WEATHER
TMP    - TEMPERATURE IN FAHRENHEIT
DP     - DEW POINT IN FAHRENHEIT
RH     - RELATIVE HUMIDITY IN PERCENT
WIND   - DIRECTION AND SPEED IN MILES PER HOUR (MPH)
VRB    - VARIABLE WIND DIRECTION
PRES   - MEAN SEA LEVEL PRESSURE IN INCHES OF MERCURY
         F - FALLING PRESSURE   R - RISING PRESSURE
         S - STEADY PRESSURE
VSB    - VISIBILITY IN MILES
HX     - HEAT INDEX IN FAHRENHEIT
WCI    - WIND CHILL INDEX IN FAHRENHEIT
TC     - TEMPERATURE IN CELSIUS WHICH IS ALSO KNOWN AS
         TEMPERATURE IN CENTIGRADE
AFB    - AIR FORCE BASE
         LUKE AFB IS LUKE AIR FORCE BASE
         DAVIS-MONTHAN IS DAVIS-MONTHAN AIR FORCE BASE
NAS    - NAVAL AIR STATION
         EL CENTRO NAS IS EL CENTRO NAVAL AIR STATION
N/A    - NOT AVAILABLE




USA.gov is the U.S. government's official web portal to all federal, state and local government web resources and services.